Location: �Izbat al Qin?n
(31.0026°N, 31.8318°E)
Time: 01:08:57
(UTC+00:00)

Daily predictions for brighter satellites

Satellite Brightness Start Highest point End
(mag) Time Altitude Azimuth Time Altitude Azimuth Time Altitude Azimuth
USA 267 3.9 01:33:14 10° ESE 01:39:27 49° NE 01:39:27 49° NE
Milstar 3 4.5 01:38:20 61° WSW 01:42:34 80° S 01:53:53 10° ESE
Cosmos 1943 Rocket 4.1 01:57:12 10° N 02:01:40 25° ENE 02:06:08 10° ESE
Cosmos 1605 Rocket 4.5 01:57:21 10° N 02:03:25 56° E 02:09:23 10° SSE
Lacrosse 5 4.1 02:06:04 16° NNE 02:07:56 19° NE 02:11:30 10° E
CZ-3 R/B 4.4 02:05:21 40° W 02:14:30 48° SW 02:26:21 10° SSE
Cosmos 2297 4.4 02:21:26 41° S 02:21:26 41° S 02:25:02 10° SSE
ALOS 4.2 02:18:08 10° NE 02:22:10 29° E 02:26:10 10° SSE
Aurora 2 Rocket 3.7 02:22:58 42° SSE 02:22:58 42° SSE 02:26:51 10° ESE
Cosmos 1727 Rocket 4.0 02:17:16 10° S 02:23:27 79° E 02:29:38 10° N
CZ-2C R/B 4.2 02:20:35 10° N 02:22:17 21° N 02:22:17 21° N
Cosmos 2084 3.7 02:30:49 69° E 02:30:49 69° E 02:35:02 10° NE
NOSS 3-1 (C) 4.2 02:28:58 49° WNW 02:30:36 56° WSW 02:39:11 10° S
Cosmos 1603 3.5 02:31:20 72° WNW 02:31:22 72° WNW 02:37:04 10° NNE
Cosmos 2369 Rocket 3.6 02:28:19 10° N 02:33:37 38° ENE 02:38:52 10° SE
Cosmos 1943 3.0 02:33:38 46° SSW 02:35:24 88° WNW 02:41:03 10° NNE
STARLINK-1056 4.3 02:37:17 47° SSE 02:37:17 47° SSE 02:40:19 10° SE
H-2A R/B 3.1 02:35:08 10° N 02:38:29 50° N 02:38:29 50° N
DELTA 2 R/B (1) 3.4 02:39:17 65° W 02:40:00 76° NNW 02:45:35 10° ENE
STARLINK-1054 4.1 02:42:04 50° SSE 02:42:04 50° SSE 02:45:15 10° SSE
Cosmos 1500 Rocket 4.2 02:37:25 10° N 02:41:45 54° E 02:46:01 10° SSE
Meteor PRIRODA 3.9 02:38:20 10° NNE 02:41:49 65° E 02:41:49 65° E
Aureole 1 Rocket 4.4 02:40:16 31° SW 02:43:55 61° WNW 02:52:13 10° N
STARLINK-1062 4.0 02:46:50 51° S 02:46:50 51° S 02:50:10 10° SSE
STARLINK-1053 3.9 02:51:35 49° SSW 02:51:35 49° SSW 02:55:03 10° SSE
Cosmos 1743 Rocket 3.4 02:49:57 10° N 02:54:17 87° E 02:58:37 10° S
Cosmos 1140 Rocket 3.3 02:50:01 11° SSW 02:55:03 79° WNW 03:00:19 10° NNE
Cosmos 1954 Rocket 4.3 02:50:16 10° S 02:55:31 67° ESE 03:00:49 10° NNE
Aureole 2 Rocket 4.3 02:53:15 10° N 02:56:02 28° ENE 02:58:54 10° SE
STARLINK-1061 4.0 02:56:24 46° SSW 02:56:24 46° SSW 03:00:00 10° SSE
Cosmos 407 Rocket 3.6 02:54:56 40° WSW 02:56:21 52° WNW 03:01:32 10° N
Okean O Rocket 3.8 02:53:39 10° NE 02:57:22 27° E 03:01:03 10° SSE
Atlas Centaur 2 3.8 02:54:16 18° SW 03:00:22 49° SSE 03:08:27 10° E
STARLINK-1067 4.1 03:01:10 41° SW 03:01:10 41° SW 03:04:53 10° SSE
SJ-12 3.8 02:59:32 10° NNE 03:03:40 90° SE 03:07:48 10° SSW
Meteor 2-3 Rocket 3.7 02:58:05 10° NNW 03:03:46 62° W 03:09:28 10° S
Cosmos 1459 Rocket 4.4 02:59:32 10° N 03:05:42 66° E 03:11:57 10° SSE
STARLINK-1058 4.2 03:05:58 37° SW 03:05:58 37° SW 03:09:46 10° SSE
GEOS 3 Rocket 4.4 03:03:45 10° N 03:08:21 31° NW 03:09:20 29° WNW
STARLINK-1043 4.3 03:10:43 33° WSW 03:10:52 33° SW 03:14:35 10° S
Delta 168 3.9 03:11:13 25° WSW 03:13:48 43° S 03:17:37 10° ESE
Cosmos 921 Rocket 3.7 03:09:32 10° N 03:13:51 57° ENE 03:18:03 10° SSE
STARLINK-1065 4.5 03:15:31 29° WSW 03:15:50 29° SW 03:19:26 10° S
Cosmos 1484 Rocket 3.4 03:12:18 10° N 03:15:57 35° WNW 03:17:12 28° WSW
GPS 2-05 Rocket1 2.1 03:17:23 53° S 03:17:33 55° SSE 03:19:51 10° ENE
Cosmos 2221 4.0 03:19:42 20° NW 03:19:42 20° NW 03:21:36 10° NNW
COSMO-SKYMED 1 2.5 03:13:59 10° SSE 03:18:18 87° E 03:22:39 10° N
DELTA 2 R/B(2) 4.1 03:20:27 37° ESE 03:20:27 37° ESE 03:21:35 10° ESE
USA 267 3.8 03:16:31 10° S 03:22:26 37° SW 03:26:50 17° WNW
METEOR-M 4.2 03:22:53 10° N 03:28:06 56° WNW 03:33:17 10° SSW
NOSS 3-3 (A) 3.7 03:22:36 10° SSW 03:28:16 78° WNW 03:34:30 10° NNE
NOSS 3-3 (C) 3.7 03:22:40 10° SSW 03:28:22 80° WNW 03:34:37 10° NNE
PAYLOAD B 4.2 03:24:40 10° NNE 03:30:14 83° WNW 03:35:46 10° SSW
Cosmos 1802 Rocket 4.1 03:24:58 10° N 03:31:27 88° E 03:37:50 10° S
PSLV R/B 4.5 03:32:49 10° NNW 03:36:08 30° WNW 03:39:31 10° SW
Cosmos 1238 Rocket 3.5 03:31:29 10° N 03:37:12 87° E 03:41:50 10° S
Cosmos 676 Rocket 4.4 03:34:05 10° SW 03:39:04 41° WNW 03:44:06 10° N
SJ-7 4.4 03:40:25 10° N 03:44:39 83° WNW 03:48:48 10° SSW
Cosmos 1943 Rocket 2.8 03:40:30 10° NW 03:45:21 33° WSW 03:50:13 10° SSW
Lacrosse 5 1.9 03:46:14 10° NW 03:51:14 61° SW 03:56:12 10° SSE
Cosmos 1315 Rocket 3.8 03:48:20 10° S 03:52:11 52° E 03:56:01 10° NNE
Cosmos 2016 Rocket 4.0 03:48:25 10° N 03:54:40 71° W 04:00:57 10° S
Cosmos 1606 3.7 03:51:19 10° S 03:55:01 51° E 03:58:42 10° NNE
ADEOS Rocket 3.4 03:49:50 10° SSE 03:55:49 75° ENE 04:02:31 10° N
ALOS 3.5 03:55:53 10° NNW 03:59:21 21° WNW 04:02:50 10° WSW
SWIFT 4.4 03:57:47 10° SW 04:00:36 17° S 04:03:25 10° SE
Cosmos 1400 Rocket 3.5 03:58:04 10° SW 04:01:40 33° WNW 04:05:20 10° NNW
NOAA 6 4.4 04:03:00 10° N 04:07:49 41° WNW 04:12:36 10° SW
ISS -3.7 04:05:22 10° SW 04:08:42 64° NW 04:12:03 10° NE
Cosmos 2233 Rocket 4.3 04:05:37 10° N 04:11:55 78° E 04:18:14 10° S
